This is the latest recevied weather packets stored in our database for station/object XQ6AK-15. If no packets are shown the sender has not sent any weather packets the latest 10 day(s).
| Time | Temp. | Humidity | Pressure | Rain* | Wind** | Luminosity | Snow |
|---|---|---|---|---|---|---|---|
| 1787738948 | 7.78° C | 99% | 997.5 hPa | 0 mm | - | 0 W/m² | - |
| 1787738644 | 8.33° C | 99% | 997.7 hPa | 0 mm | - | 0 W/m² | - |
| 1787738343 | 8.33° C | 99% | 997.6 hPa | 0 mm | - | 0 W/m² | - |
| 1787738038 | 8.33° C | 99% | 997.4 hPa | 1.27 mm | - | 0 W/m² | - |
| 1787737733 | 8.33° C | 99% | 997.6 hPa | 1.27 mm | - | 0 W/m² | - |
| 1787737432 | 8.33° C | 99% | 997.6 hPa | 0 mm | - | 0 W/m² | - |
| 1787737128 | 8.33° C | 99% | 997.6 hPa | 0 mm | - | 0 W/m² | - |
| 1787736824 | 8.33° C | 99% | 997.5 hPa | 14.99 mm | - | 0 W/m² | - |
| 1787736519 | 8.89° C | 99% | 997.7 hPa | 13.21 mm | - | 0 W/m² | - |
| 1787736219 | 8.89° C | 99% | 997.4 hPa | 0 mm | - | 0 W/m² | - |
| 1787735918 | 8.89° C | 97% | 997.1 hPa | 0 mm | - | 0 W/m² | - |
| 1787735612 | 8.89° C | 97% | 996.9 hPa | 0 mm | - | 0 W/m² | - |
| 1787735308 | 8.89° C | 97% | 997 hPa | 0 mm | - | 0 W/m² | - |
| 1787735006 | 8.89° C | 98% | 996.7 hPa | 0 mm | - | 0 W/m² | - |
| 1787734706 | 8.89° C | 98% | 996.8 hPa | 0 mm | - | 0 W/m² | - |
| 1787734401 | 8.89° C | 98% | 996.6 hPa | 0 mm | - | 0 W/m² | - |
| 1787734098 | 8.89° C | 98% | 996.6 hPa | 0 mm | - | 0 W/m² | - |
| 1787733796 | 8.89° C | 98% | 996.6 hPa | 0 mm | - | 0 W/m² | - |
| 1787733492 | 8.89° C | 99% | 996.4 hPa | 0 mm | - | 0 W/m² | - |
| 1787733188 | 8.89° C | 99% | 996.5 hPa | 0 mm | - | 0 W/m² | - |
| 1787732883 | 8.89° C | 99% | 996.5 hPa | 0 mm | - | 0 W/m² | - |
| 1787732577 | 8.89° C | 99% | 996.5 hPa | 0 mm | - | 0 W/m² | - |
| 1787732273 | 8.33° C | 99% | 996.4 hPa | 0 mm | - | 0 W/m² | - |
| 1787731971 | 8.33° C | 99% | 996.5 hPa | 0 mm | - | 0 W/m² | - |
| 1787731671 | 8.33° C | 99% | 996.7 hPa | 0 mm | - | 0 W/m² | - |
* Rain latest hour (hover to see other rain measurements)
** Current wind speed in m/s (hover to see current wind gust speed)